Valdosta Regional, GA

10:01 PM EDT on April 19, 2018 (GMT -0400)
Valdosta Regional

Weather History for KVLD - August, 2013

Change the Weather History Date:

Thursday, August 22, 2013

  Actual Average Record
Temperature  
Mean Temperature 77 °F 81 °F  
Max Temperature 81 °F 91 °F 100 °F (2005)
Min Temperature 73 °F 71 °F 64 °F (1997)
Cooling Degree Days 12 16  
Month to date cooling degree days 433 359  
Year to date cooling degree days 2116 1711  
Since 1 June cooling degree days 1554 1299  
Growing Degree Days 26 (Base 50)    
Moisture  
Dew Point 72 °F    
Average Humidity 84    
Maximum Humidity 94    
Minimum Humidity 74    
Precipitation  
Precipitation 1.17 in 0.15 in 2.48 in (2008)
Month to date precipitation 4.87 3.89  
Year to date precipitation 32.57 35.58  
Sea Level Pressure  
Sea Level Pressure 30.13 in    
Wind  
Wind Speed 3 mph (ESE)    
Max Wind Speed 20 mph    
Max Gust Speed 28 mph    
Visibility 7 miles    
Events Fog , Rain , Thunderstorm    
T = Trace of Precipitation, MM = Missing Value Source: NWS Daily Summary

Daily Weather History Graph

Daily Weather History Graph

Search for Another Location

Airport or City:

Astronomy

Aug. 22, 2013 Rise Set
Actual Time 7:03 AM EDT 8:07 PM EDT
Civil Twilight 6:38 AM EDT 8:32 PM EDT
Nautical Twilight 6:09 AM EDT 9:02 PM EDT
Astronomical Twilight 5:38 AM EDT 9:32 PM EDT
Moon 9:04 PM EDT (8/22) 8:39 AM EDT (8/22)
Length of Visible Light 13h 53m
Length of Day
13h 03m
Waning Gibbous, 97% of the Moon is Illuminated
Aug 22
Waning Gibbous
Aug 28
Last Quarter
Sep 5
New
Sep 12
First Quarter
Sep 19
Full

Hourly Weather History & Observations

Time (EDT) Temp. Heat Index Dew Point Humidity Pressure Visibility Wind Dir Wind Speed Gust Speed Precip Events Conditions
12:53 AM 77.0 °F - 73.0 °F 88% 30.17 in 10.0 mi Calm Calm - 0.01 in   Clear
1:05 AM 77.0 °F - 73.4 °F 89% 30.14 in 10.0 mi Calm Calm - N/A   Scattered Clouds
1:14 AM 77.0 °F - 73.4 °F 89% 30.14 in 10.0 mi Calm Calm - N/A   Mostly Cloudy
1:53 AM 75.9 °F - 73.0 °F 91% 30.16 in 2.0 mi Calm Calm - N/A   Overcast
2:01 AM 75.2 °F - 73.4 °F 94% 30.14 in 1.8 mi Calm Calm - N/A   Overcast
2:04 AM 75.2 °F - 73.4 °F 94% 30.13 in 2.0 mi Calm Calm - N/A   Overcast
2:15 AM 75.2 °F - 73.4 °F 94% 30.13 in 6.0 mi Calm Calm - N/A   Mostly Cloudy
2:23 AM 75.2 °F - 73.4 °F 94% 30.12 in 10.0 mi ESE 3.5 mph - N/A   Mostly Cloudy
2:28 AM 77.0 °F - 73.4 °F 89% 30.12 in 10.0 mi East 3.5 mph - N/A   Mostly Cloudy
2:41 AM 77.0 °F - 73.4 °F 89% 30.12 in 10.0 mi ENE 3.5 mph - N/A   Partly Cloudy
2:53 AM 77.0 °F - 73.0 °F 88% 30.13 in 10.0 mi Calm Calm - N/A   Partly Cloudy
3:53 AM 77.0 °F - 73.0 °F 88% 30.14 in 10.0 mi Calm Calm - N/A   Mostly Cloudy
4:53 AM 77.0 °F - 73.0 °F 88% 30.12 in 10.0 mi Calm Calm - N/A   Mostly Cloudy
5:53 AM 77.0 °F - 73.0 °F 88% 30.12 in 7.0 mi NE 3.5 mph - N/A   Overcast
6:53 AM 77.0 °F - 73.9 °F 90% 30.14 in 5.0 mi NNE 5.8 mph - N/A   Overcast
7:15 AM 77.0 °F - 73.4 °F 89% 30.12 in 0.5 mi NNE 5.8 mph - N/A Fog Fog
7:53 AM 78.1 °F - 73.9 °F 87% 30.14 in 2.0 mi NE 6.9 mph - N/A   Overcast
8:53 AM 80.1 °F 85.4 °F 75.9 °F 87% 30.15 in 2.0 mi NE 5.8 mph - 0.04 in   Overcast
9:00 AM 80.6 °F 86.2 °F 75.2 °F 84% 30.13 in 5.0 mi Variable 6.9 mph - N/A   Overcast
9:19 AM 80.6 °F 86.2 °F 75.2 °F 84% 30.15 in 5.0 mi Calm Calm - 0.08 in Rain Heavy Rain
9:21 AM 80.6 °F 86.2 °F 75.2 °F 84% 30.15 in 5.0 mi Calm Calm - 0.10 in Rain , Thunderstorm Heavy Thunderstorms and Rain
9:53 AM 80.1 °F 85.4 °F 75.9 °F 87% 30.18 in 5.0 mi SSW 8.1 mph - 0.12 in Rain , Thunderstorm Light Thunderstorms and Rain
10:07 AM 77.0 °F - 71.6 °F 83% 30.17 in 1.8 mi South 11.5 mph - 0.09 in Rain , Thunderstorm Heavy Thunderstorms and Rain
10:26 AM 73.4 °F - 69.8 °F 88% 30.19 in 0.5 mi SE 16.1 mph 27.6 mph 0.56 in Fog , Rain , Thunderstorm Heavy Thunderstorms and Rain
10:45 AM 73.4 °F - 69.8 °F 88% 30.18 in 2.0 mi SSE 8.1 mph - 0.86 in Rain , Thunderstorm Heavy Thunderstorms and Rain
10:53 AM 73.9 °F - 69.1 °F 85% 30.19 in 5.0 mi South 8.1 mph - 0.88 in Rain , Thunderstorm Thunderstorms and Rain
11:32 AM 73.4 °F - 69.8 °F 88% 30.17 in 3.0 mi SW 3.5 mph - 0.03 in Rain Rain
11:53 AM 73.0 °F - 69.1 °F 87% 30.18 in 5.0 mi SSE 3.5 mph - 0.08 in Rain Rain
12:53 PM 75.0 °F - 70.0 °F 84% 30.14 in 10.0 mi South 4.6 mph - 0.04 in Rain Light Rain
1:53 PM 79.0 °F - 72.0 °F 79% 30.15 in 10.0 mi Calm Calm - 0.01 in   Mostly Cloudy
2:50 PM 80.6 °F 84.6 °F 71.6 °F 74% 30.14 in 10.0 mi Variable 3.5 mph - N/A   Mostly Cloudy
2:53 PM 80.1 °F 83.8 °F 72.0 °F 76% 30.16 in 10.0 mi Calm Calm - N/A   Overcast
3:53 PM 79.0 °F - 70.0 °F 74% 30.14 in 10.0 mi Calm Calm - N/A   Partly Cloudy
4:53 PM 80.1 °F 83.6 °F 71.1 °F 74% 30.10 in 10.0 mi East 6.9 mph - 0.00 in   Scattered Clouds
5:53 PM 80.1 °F 83.6 °F 71.1 °F 74% 30.06 in 10.0 mi ENE 6.9 mph - N/A   Scattered Clouds
6:53 PM 80.1 °F 83.6 °F 71.1 °F 74% 30.06 in 10.0 mi SSE 3.5 mph - N/A   Clear
7:53 PM 78.1 °F - 72.0 °F 81% 30.08 in 10.0 mi Calm Calm - N/A   Scattered Clouds
8:53 PM 75.9 °F - 72.0 °F 87% 30.08 in 10.0 mi Calm Calm - N/A   Scattered Clouds
9:53 PM 75.9 °F - 72.0 °F 87% 30.09 in 10.0 mi Calm Calm - N/A   Clear
10:53 PM 75.0 °F - 70.0 °F 84% 30.10 in 10.0 mi Calm Calm - N/A   Clear
11:53 PM 75.0 °F - 71.1 °F 87% 30.10 in 10.0 mi ENE 4.6 mph - N/A   Clear